Elmendorf AFB, AK

10:01 PM AKDT on April 23, 2017 (GMT -0800)
Elmendorf Air Force Base

Weather History for PAED - November, 2013

Change the Weather History Date:

Wednesday, November 13, 2013

  Actual Average Record
Temperature  
Mean Temperature 22 °F -  
Max Temperature 24 °F 27 °F 51 °F (1967)
Min Temperature 19 °F 14 °F -4 °F (1975)
Degree Days  
Heating Degree Days 44    
Moisture  
Dew Point 18 °F    
Average Humidity 81    
Maximum Humidity 88    
Minimum Humidity 67    
Precipitation  
Precipitation 0.00 in - - ()
Sea Level Pressure  
Sea Level Pressure 30.17 in    
Wind  
Wind Speed 3 mph (WNW)    
Max Wind Speed 14 mph    
Max Gust Speed -    
Visibility 10 miles    
Events      
Averages and records for this station are not official NWS values.
T = Trace of Precipitation, MM = Missing Value Source: NWS Daily Summary

Daily Weather History Graph

Daily Weather History Graph

Search for Another Location

Airport or City:

Trip Planner

Search our weather history database for the weather conditions in past years. The results will help you decide how hot, cold, wet, or windy it might be!

Date:

Astronomy

Nov. 13, 2013 Rise Set
Actual Time 9:01 AM AKST 4:25 PM AKST
Civil Twilight 8:09 AM AKST 5:16 PM AKST
Nautical Twilight 7:16 AM AKST 6:10 PM AKST
Astronomical Twilight 6:25 AM AKST 7:00 PM AKST
Moon 3:13 PM AKST (11/13) 4:01 AM AKST (11/13)
Length of Visible Light 9h 06m
Length of Day
7h 23m
Waxing Gibbous, 86% of the Moon is Illuminated
Nov 13
Waxing Gibbous
Nov 17
Full
Nov 25
Last Quarter
Dec 2
New
Dec 9
First Quarter

Hourly Weather History & Observations

Time (AKST) Temp. Windchill Dew Point Humidity Pressure Visibility Wind Dir Wind Speed Gust Speed Precip Events Conditions
12:58 AM 19.0 °F - 11.7 °F 73% 30.13 in 10.0 mi Calm Calm - N/A   Clear
1:58 AM 19.9 °F - 11.8 °F 71% 30.13 in 10.0 mi Calm Calm - N/A   Mostly Cloudy
2:58 AM 20.1 °F - 13.5 °F 75% 30.12 in 10.0 mi Calm Calm - N/A   Scattered Clouds
3:58 AM 20.7 °F 14.2 °F 11.3 °F 67% 30.15 in 10.0 mi West 4.6 mph - N/A   Clear
4:58 AM 20.5 °F 12.8 °F 16.9 °F 86% 30.14 in 10.0 mi WNW 5.8 mph - N/A   Mostly Cloudy
5:58 AM 20.7 °F 13.0 °F 17.4 °F 87% 30.14 in 10.0 mi WNW 5.8 mph - N/A   Overcast
6:58 AM 20.8 °F 12.1 °F 17.1 °F 85% 30.15 in 10.0 mi West 6.9 mph - N/A   Overcast
7:58 AM 21.4 °F 13.8 °F 17.8 °F 86% 30.15 in 10.0 mi West 5.8 mph - N/A   Overcast
8:58 AM 20.8 °F 14.4 °F 17.1 °F 85% 30.17 in 10.0 mi West 4.6 mph - N/A   Overcast
9:58 AM 21.2 °F 16.4 °F 17.1 °F 84% 30.20 in 10.0 mi WNW 3.5 mph - N/A   Overcast
10:58 AM 24.8 °F 17.9 °F 18.0 °F 75% 30.21 in 10.0 mi WSW 5.8 mph - N/A   Overcast
11:58 AM 22.5 °F 16.3 °F 16.3 °F 77% 30.22 in 10.0 mi WNW 4.6 mph - N/A   Overcast
12:58 PM 23.7 °F - 16.3 °F 73% 30.23 in 10.0 mi WNW 2.3 mph - N/A   Overcast
1:58 PM 24.4 °F 17.5 °F 17.1 °F 73% 30.23 in 10.0 mi West 5.8 mph - N/A   Partly Cloudy
2:58 PM 24.3 °F - 17.4 °F 75% 30.23 in 10.0 mi NNW 1.2 mph - N/A   Mostly Cloudy
3:58 PM 23.9 °F 18.0 °F 16.7 °F 74% 30.22 in 10.0 mi NNW 4.6 mph - N/A   Mostly Cloudy
4:18 PM 23.0 °F - 19.4 °F 86% 30.20 in 10.0 mi NW 1.2 mph - N/A   Overcast
4:58 PM 22.8 °F - 18.1 °F 82% 30.17 in 10.0 mi Calm Calm - N/A   Overcast
5:58 PM 23.2 °F 15.0 °F 17.8 °F 80% 30.20 in 10.0 mi West 6.9 mph - N/A   Overcast
6:58 PM 23.4 °F - 18.3 °F 81% 30.19 in 10.0 mi NNW 1.2 mph - N/A   Overcast
7:58 PM 23.7 °F 14.7 °F 19.8 °F 85% 30.15 in 10.0 mi WSW 8.1 mph - N/A   Overcast
8:58 PM 24.8 °F 16.9 °F 21.0 °F 86% 30.17 in 10.0 mi WSW 6.9 mph - N/A   Overcast
9:38 PM 24.8 °F 16.9 °F 21.2 °F 86% 30.13 in 10.0 mi NNW 6.9 mph - N/A   Overcast
9:48 PM 24.8 °F - 21.2 °F 86% 30.13 in 10.0 mi West 2.3 mph - N/A   Overcast
9:58 PM 24.8 °F 14.6 °F 21.7 °F 88% 30.13 in 10.0 mi WSW 10.4 mph - N/A   Overcast
10:08 PM 24.8 °F 12.9 °F 21.2 °F 86% 30.14 in 10.0 mi WSW 13.8 mph - N/A   Overcast
10:58 PM 24.3 °F - 21.0 °F 87% 30.14 in 10.0 mi WNW 2.3 mph - N/A   Overcast
11:58 PM 24.6 °F - 21.6 °F 88% 30.12 in 10.0 mi Calm Calm - N/A   Overcast